Other Public Products
Issued by NWS Grand Forks, ND

Home | Current Version | Previous Version | Graphics & Text | Print | Product List | Glossary On
Versions: 1 2 3 4 5 6 7 8 9 10 11 12 13 14 15 16 17 18 19 20 21 22 23 24 25 26 27 28 29 30 31 32 33 34 35 36 37 38 39 40 41 42 43 44 45 46 47 48 49 50
121
FPUS83 KFGF 270010
OPUFGF
PRAIRIE TO PINES WEATHER ROUNDUP
NATIONAL WEATHER SERVICE EASTERN NORTH DAKOTA/GRAND FORKS ND
700 PM CDT THU MAY 26 2016

 **SATELLITE DATA USED TO AUGMENT SKY COVER AT AUTOMATED STATIONS**
 *****  WEATHER ACROSS EASTERN NORTH DAKOTA  *****

CITY           SKY/WX    TMP DP  RH WIND       PRES   REMARKS
GRAND FORKS    MOSUNNY   70  55  59 NW15      29.71F
6HR MIN TEMP:  66; 6HR MAX TEMP:  73;

GRAND FORKS AF SUNNY     69  54  58 NW13      29.73S
GRAND CITY NWS   N/A     70 N/A N/A NW9         N/A
BUXTON           N/A     73  57  58 NW12        N/A
DEVILS LAKE    SUNNY     65  52  62 N12       29.76F
6HR MIN TEMP:  62; 6HR MAX TEMP:  67;

FARGO          SUNNY     76  52  43 NW9       29.71F
6HR MIN TEMP:  67; 6HR MAX TEMP:  77;

WAHPETON ARPT  PTCLDY    77  43  29 NW9       29.74R
$$

 *****  WEATHER ACROSS CENTRAL AND WESTERN NORTH DAKOTA  *****

CITY           SKY/WX    TMP DP  RH WIND       PRES   REMARKS
JAMESTOWN      SUNNY     72  48  42 W12       29.71F
6HR MIN TEMP:  68; 6HR MAX TEMP:  75;

BISMARCK       MOSUNNY   69  49  48 NW9G18    29.75S
6HR MIN TEMP:  68; 6HR MAX TEMP:  76;

MINOT          CLOUDY    59  50  72 E8        29.79R
6HR MIN TEMP:  59; 6HR MAX TEMP:  72;

MINOT AFB      MOSUNNY   63  53  70 NE13      29.77R
6HR MIN TEMP:  60; 6HR MAX TEMP:  66; 6HR PCP: TRACE;

GARRISON         N/A     66  49  54 NW13      29.77R
6HR MIN TEMP:  53; 6HR MAX TEMP:  69; 6HR PCP:  0.38;

WILLISTON      CLOUDY    66  49  54 N9        29.79R
6HR MIN TEMP:  60; 6HR MAX TEMP:  68; 6HR PCP: TRACE;

DICKINSON      PTSUNNY   57  41  55 W18       29.79F
6HR MIN TEMP:  55; 6HR MAX TEMP:  67; 6HR PCP:  0.01;

HETTINGER      PTSUNNY   66  41  40 NW14G21   29.83R
6HR MIN TEMP:  62; 6HR MAX TEMP:  69; 6HR PCP: TRACE;

$$

 *****  OTHER OBSERVATIONS NORTHEAST NORTH DAKOTA  *****

CITY           SKY/WX    TMP DP  RH WIND       PRES   REMARKS
WALHALLA       NOT AVBL
LANGDON        NOT AVBL
CAVALIER       NOT AVBL
GRAFTON        NOT AVBL
CANDO          NOT AVBL
FORT TOTTEN      N/A     66  53  62 N5        29.95S
ROLLA          NOT AVBL
RUGBY          NOT AVBL
 ***** THE ABOVE OBSERVATIONS ARE NON NWS ARE NOT QUALITY
        CONTROLLED AND MAY MIS-REPORT RAIN FOR SNOW...
$$

 *****  OTHER OBSERVATIONS SOUTHEAST NORTH DAKOTA *****

CITY           SKY/WX    TMP DP  RH WIND       PRES   REMARKS
COOPERSTOWN    NOT AVBL
VALLEY CITY    NOT AVBL
OAKES          NOT AVBL
GWINNER        NOT AVBL
SHEYENNE NWR     N/A     78  51  38 W6        29.95S
BUFFALO          N/A     72  47  40 N10         N/A
WYNDMERE         N/A     77  48  36 W5          N/A
 ***** THE ABOVE OBSERVATIONS ARE NON NWS ARE NOT QUALITY
       CONTROLLED AND MAY MIS-REPORT RAIN FOR SNOW...
$$

  *****  WEATHER ACROSS NORTHERN MINNESOTA  *****

CITY           SKY/WX    TMP DP  RH WIND       PRES   REMARKS
FLAG ISLAND    MOSUNNY   66  54  63 SW15      29.68S
WARROAD        MOSUNNY   68  57  68 SW8       29.70F
ROSEAU         SUNNY     70  57  64 W13       29.70F
HALLOCK        MOSUNNY   66  55  68 W15       29.71R
THF RVR FALLS  MOSUNNY   70  54  56 W14       29.73F
6HR MIN TEMP:  63; 6HR MAX TEMP:  70;

HALSTAD        NOT AVBL
FOSSTON        SUNNY     70  52  52 W13       29.72F
BAUDETTE       SUNNY     71  53  52 SW10      29.71S
6HR MIN TEMP:  68; 6HR MAX TEMP:  73;

WASKISH        SUNNY     68  57  68 SW12      29.73F
CROOKSTON      SUNNY     72  55  56 NW13G20   29.72F
$$
  *****  WEATHER ACROSS CENTRAL AND WEST MINNESOTA  *****

CITY           SKY/WX    TMP DP  RH WIND       PRES   REMARKS
BEMIDJI        MOSUNNY   69  51  51 NW15      29.72F
PARK RAPIDS    MOSUNNY   72  50  45 NW13      29.76F
6HR MIN TEMP:  69; 6HR MAX TEMP:  75;

WADENA         MOSUNNY   72  50  46 W5        29.77R
DETROIT LAKES  SUNNY     70  54  56 N5        29.77R
MOORHEAD       SUNNY     73  54  49 NW5       29.73R
FERGUS FALLS   MOSUNNY   75  48  38 NW13      29.71R
ELBOW LAKE     MOCLDY    75  50  42 NW6       29.76R
6HR MIN TEMP:  71; 6HR MAX TEMP:  77;

MORRIS MN      MOSUNNY   79  52  38 W5        29.77R
STAPLES        SUNNY     72  48  43 NW9       29.78R
WHEATON        SUNNY     79  52  38 SW6       29.77R
$$
  *****  WEATHER ELSEWHERE ACROSS MINNESOTA  *****

CITY           SKY/WX    TMP DP  RH WIND       PRES   REMARKS
DULUTH         MOSUNNY   59  52  77 SE9       29.77R
6HR MIN TEMP:  57; 6HR MAX TEMP:  69;

INTRNTL FALLS  CLOUDY    72  51  47 W9        29.72R
6HR MIN TEMP:  68; 6HR MAX TEMP:  77;

ELY            SUNNY     73  48  40 W7        29.70F
CLOQUET        MOSUNNY   61  52  72 SE8       29.77R
BRAINERD       SUNNY     73  46  38 NW9       29.78R
6HR MIN TEMP:  73; 6HR MAX TEMP:  76;

HIBBING        SUNNY     71  51  49 W6        29.71F
6HR MIN TEMP:  59; 6HR MAX TEMP:  74;

ALEXANDRIA     SUNNY     76  47  35 N3        29.80R
6HR MIN TEMP:  73; 6HR MAX TEMP:  78;

SAINT CLOUD    SUNNY     78  47  33 W7        29.80R
6HR MIN TEMP:  74; 6HR MAX TEMP:  80;

MINNEAPOLIS    CLOUDY    79  49  34 W7        29.82R
6HR MIN TEMP:  78; 6HR MAX TEMP:  81;

$$

  *****  WEATHER ACROSS SOUTH DAKOTA  *****

CITY           SKY/WX    TMP DP  RH WIND       PRES   REMARKS
SIOUX FALLS    CLOUDY    71  56  58 E7        29.83R
6HR MIN TEMP:  71; 6HR MAX TEMP:  76;

BROOKINGS      CLOUDY    74  52  46 S8        29.82R
WATERTOWN      MOSUNNY   75  48  38 CALM      29.80R
6HR MIN TEMP:  71; 6HR MAX TEMP:  76;

HURON          SUNNY     74  54  49 SE9       29.78R
6HR MIN TEMP:  71; 6HR MAX TEMP:  78;

SISSETON         N/A     77  48  35 W6        29.74R
ABERDEEN       MOSUNNY   77  50  38 W9        29.72S
6HR MIN TEMP:  73; 6HR MAX TEMP:  79;

MITCHELL       CLOUDY    74  56  53 SE14      29.81R
PIERRE         SUNNY     74  52  46 N10       29.74R
6HR MIN TEMP:  72; 6HR MAX TEMP:  77;

MOBRIDGE       MOSUNNY   76  44  32 W12       29.70F
RAPID CITY     CLOUDY    68  42  38 E6        29.82F
6HR MIN TEMP:  58; 6HR MAX TEMP:  70; 6HR PCP:  0.06;

$$

  *****  SOME WEATHER IN NEARBY STATES *****

CITY           SKY/WX    TMP DP  RH WIND       PRES   REMARKS
GLASGOW MT     CLOUDY    62  54  74 NE18      29.79S
6HR MIN TEMP:  54; 6HR MAX TEMP:  64; 6HR PCP:  0.15;

GREAT FALLS MT CLOUDY    57  45  64 N12       29.90R
6HR MIN TEMP:  51; 6HR MAX TEMP:  68; 6HR PCP: TRACE;

CHEYENNE WY    CLOUDY    49  42  77 CALM      29.91F
6HR MIN TEMP:  46; 6HR MAX TEMP:  63; 6HR PCP:  0.09;

SCOTTSBLUFF NE CLOUDY    63  41  44 NW13      29.86S
6HR MIN TEMP:  62; 6HR MAX TEMP:  70;

OMAHA NE       LGT RAIN  65  58  78 E33G44    29.83R
6HR MIN TEMP:  65; 6HR MAX TEMP:  84; 6HR PCP:  0.30;

DES MOINES IA  TSTM      65  59  81 SW32      29.94R VSB 3/4
6HR MIN TEMP:  69; 6HR MAX TEMP:  82; 6HR PCP:  0.08;

DAVENPORT IA   CLOUDY    82  66  58 NW3       29.84R
6HR MIN TEMP:  80; 6HR MAX TEMP:  84;

CHICAGO IL     PTSUNNY   81  63  54 W7        29.83R
6HR MIN TEMP:  78; 6HR MAX TEMP:  83;

EAU CLAIRE WI  CLOUDY    77  52  41 SW10      29.81R
6HR MIN TEMP:  75; 6HR MAX TEMP:  81;

LA CROSSE WI   CLOUDY    79  58  48 W5        29.82R
6HR MIN TEMP:  77; 6HR MAX TEMP:  84;

$$

  *****  SOME NATIONAL WEATHER *****

CITY           SKY/WX    TMP DP  RH WIND       PRES   REMARKS
LA GUARDIA NY  MOCLDY    81  55  40 S12       30.03R               C1F1C2F2C3F3C4F4C5F5C6F6C7F7C8F8C9F9CaFaCbFbCcFcCdFdCe!



USA.gov is the U.S. government's official web portal to all federal, state and local government web resources and services.